Observations for Trim Market St
| Time | AQI | Temp °C | Hum % | Pres Pa | CO μg/m³ | H₂S μg/m³ | NO μg/m³ | NO₂ μg/m³ | O₃ μg/m³ | SO₂ μg/m³ | PM1 μg/m³ | PM2.5 μg/m³ | PM10 μg/m³ |
|---|---|---|---|---|---|---|---|---|---|---|---|---|---|
| Wednesday 15 July 2026 | |||||||||||||
| 20:58 | 1 | 23.2 | 56 | 57,876 | 0 | 0 | 0 | 7.78 | 32.92 | 0 | 6.41 | 9.3 | 13.94 |
| 20:57 | 1 | 23.2 | 56 | 57,863 | 0 | 0 | 0 | 8.79 | 33.95 | 0 | 7.84 | 10.83 | 15.37 |
| 20:56 | 1 | 23.2 | 55 | 57,848 | 0 | 0 | 0 | 8.41 | 34.18 | 0 | 4.99 | 7.8 | 11.81 |
| 20:55 | 1 | 23.3 | 55 | 57,826 | 0 | 0 | 0 | 8.39 | 33.79 | 0 | 6.41 | 9.83 | 13.24 |
| 20:54 | 1 | 23.3 | 55 | 57,797 | 0 | 0 | 0 | 8.8 | 34.88 | 0 | 7.13 | 10.34 | 13.96 |
| 20:53 | 1 | 23.3 | 55 | 57,764 | 0 | 0 | 0 | 8.51 | 35.4 | 0 | 5.7 | 8.83 | 12.54 |
| 20:52 | 1 | 23.4 | 55 | 57,726 | 0 | 0 | 0 | 9.7 | 31.16 | 0 | 5.7 | 8.33 | 11.11 |
| 20:51 | 1 | 23.4 | 55 | 57,675 | 0 | 0 | 0 | 7.61 | 36.12 | 0 | 7.13 | 12.39 | 16.84 |
| 20:49 | 1 | 23.5 | 55 | 57,602 | 0 | 0 | 0 | 7.8 | 35.69 | 0 | 7.84 | 9.87 | 14.7 |
| 20:48 | 1 | 23.5 | 54 | 57,522 | 0 | 0 | 0 | 8.63 | 34.55 | 0 | 6.41 | 9.37 | 13.28 |
| 20:47 | 1 | 23.6 | 54 | 57,441 | 0 | 0 | 0 | 10.31 | 31.36 | 0 | 6.41 | 9.89 | 13.28 |
| 20:46 | 1 | 23.6 | 54 | 57,362 | 0 | 0 | 0 | 8.22 | 36.53 | 0 | 6.41 | 9.89 | 13.29 |
| 20:45 | 1 | 23.7 | 54 | 57,282 | 0 | 0 | 0 | 7.71 | 35.2 | 0 | 6.41 | 8.38 | 11.13 |
| 20:44 | 1 | 23.7 | 54 | 57,187 | 0 | 0 | 0 | 9.53 | 31.97 | 0 | 6.41 | 8.9 | 13.3 |
| 20:41 | 1 | 23.8 | 54 | 56,896 | 0 | 0 | 0 | 8.34 | 35.46 | 0 | 5.7 | 8.41 | 13.32 |
| 20:40 | 1 | 23.8 | 54 | 56,814 | 0 | 0 | 0 | 7.76 | 35.75 | 0 | 6.41 | 9.44 | 13.33 |
| 20:39 | 1 | 23.9 | 53 | 56,748 | 0 | 0 | 0 | 7.74 | 36.33 | 0 | 7.84 | 9.95 | 13.33 |
| 20:38 | 1 | 23.9 | 53 | 56,705 | 0 | 0 | 0 | 7.24 | 34.42 | 0 | 6.41 | 8.93 | 13.33 |
| 20:34 | 1 | 24 | 53 | 56,551 | 0 | 0 | 0 | 8.05 | 35.14 | 0 | 7.13 | 8.95 | 13.35 |
| 20:33 | 1 | 24 | 53 | 56,515 | 0 | 0 | 0 | 8.36 | 35.82 | 0 | 7.84 | 10.49 | 14.81 |